Location: Newark
(46.2031°N, 3.4731°E)
Time: 04:41:22
(UTC+00:00)

Envisat - Pass Details

Date: 20 September 2019
Orbit: 764 x 766 km, 98.1° (Epoch: 20 October)

Event Time Altitude Azimuth Distance (km) Brightness Sun altitude
Rises 19:23:56 0° 217° (SW) 3,222 6.5 -17.0°
Reaches altitude 10° 19:27:32 10° 244° (WSW) 2,303 6.1 -17.6°
Maximum altitude 19:29:55 13° 273° (W) 2,084 6.3 -18.0°
Drops below altitude 10° 19:32:19 10° 301° (WNW) 2,311 6.7 -18.3°
Sets 19:35:58 0° 328° (NNW) 3,244 7.1 -18.9°
